Regional Weather Roundup
Issued by NWS

Home | Current Version | Previous Version | Graphics & Text | Print | Product List | Glossary On
Versions: 1 2 3 4 5 6 7 8 9 10 11 12 13 14 15 16 17 18 19 20 21 22 23 24 25 26 27 28 29 30 31 32 33 34 35 36 37 38 39 40 41 42 43 44 45 46 47 48 49 50
000
ASUS43 KMPX 211510
RWRMN
WEATHER ROUNDUP FOR MINNESOTA
NATIONAL WEATHER SERVICE TWIN CITIES/CHANHASSEN MN
900 AM CST SUN DEC 21 2014


NOTE: "FAIR" INDICATES FEW OR NO CLOUDS BELOW 12,000 FEET WITH NO
SIGNIFICANT WEATHER AND/OR OBSTRUCTIONS TO VISIBILITY. N/A MEANS
CURRENT SKY AND/OR WEATHER CONDITIONS ARE NOT AVAILABLE.

MNZ060>063-068>070-211600-
   Twin Cities Metro

CITY           SKY/WX    TMP DP  RH WIND       PRES   REMARKS
TWIN CITIES    LGTSLEET  34  32  92 SE16G23   29.88F FOG     WCI  24
ST PAUL        LGT RAIN  33  33 100 S15       29.89F FOG     WCI  23
CRYSTAL        LGT RAIN  34  32  92 SE10      29.85F FOG     WCI  26
BLAINE         LGT RAIN  34  34 100 S10G17    29.86F WCI  26
LAKEVILLE      MIX PCPN  32  32 100 SE8       29.88F VSB 1   WCI  25
EDEN PRAIRIE   LGT RAIN  34  33  96 SE14      29.85F FOG     WCI  25
SOUTH ST PAUL  DRIZZLE   34  33  96 SE7       29.89F WCI  28
LAKE ELMO      CLOUDY    34  32  93 S13G18    29.90S FOG     WCI  25
$$
MNZ001>005-007-008-013>017-022>024-027-028-211600-
   Northwest Minnesota

CITY           SKY/WX    TMP DP  RH WIND       PRES   REMARKS
BEMIDJI        CLOUDY    29  28  96 S12       29.75S FOG     WCI  19
HALLOCK        CLOUDY    30  30 100 CALM      29.67F FOG
ROSEAU         CLOUDY    30  27  86 S10       29.71S WCI  21
WARROAD        CLOUDY    30  27  86 SE7       29.73S FOG     WCI  23
THIEF RVR FALL CLOUDY    30  28  93 S14       29.72S WCI  20
CROOKSTON      CLOUDY    30  28  93 S22       29.73S FOG     WCI  17
FOSSTON        CLOUDY    28  27  93 S16       29.73S FOG     WCI  17
DETROIT LAKES  CLOUDY    30  30 100 S15G21    29.75F FOG     WCI  19
MOORHEAD       CLOUDY    30  30 100 S20       29.74F FOG     WCI  18
PARK RAPIDS    CLOUDY    30  28  92 S13       29.76F FOG     WCI  20
MAHNOMEN       CLOUDY    29  28  96 S16       29.73F FOG     WCI  18
$$
MNZ006-009>011-018-025>026-211600-
   North Central Minnesota

CITY           SKY/WX    TMP DP  RH WIND       PRES   REMARKS
BAUDETTE       LGT SNOW  29  27  92 S8        29.74F FOG     WCI  21
FLAG ISLAND    LGT SNOW  28  27  93 SE16      29.72F WCI  17
INTL FALLS     CLOUDY    29  26  89 VRB5      29.79F FOG     WCI  24
WASKISH        CLOUDY    30  28  93 CALM      29.75F FOG
BIG FORK       MIX PCPN  30  28  93 S8        29.79F WCI  23
LONGVILLE      CLOUDY    30  28  93 S10G18    29.79F FOG     WCI  21
GRAND RAPIDS   CLOUDY    28  27  93 S14       29.81F WCI  17
CRANE LAKE     CLOUDY    28  27  93 SE6       29.86S WCI  22
ORR            CLOUDY    28  27  93 SE8       29.79F FOG     WCI  20
COOK           CLOUDY    28  27  93 S12       29.83F WCI  18
WALKER         CLOUDY    29  28  96 S9        29.77F FOG     WCI  20
$$
MNZ012-019>021-037-211600-
   Northeast Minnesota

CITY           SKY/WX    TMP DP  RH WIND       PRES   REMARKS
DULUTH         FRZ DRZL  30  27  88 S12       29.87S FOG     WCI  20
ELY            CLOUDY    28  27  93 S10       29.85F WCI  19
HIBBING        CLOUDY    30  26  85 S7        29.83F WCI  23
EVELETH        CLOUDY    30  30 100 SE14      29.85F FOG     WCI  20
DULUTH HARBOR  CLOUDY    34  30  86 S8        29.93S WCI  27
TWO HARBORS    CLOUDY    34  28  80 S9        29.89F WCI  26
SILVER BAY     CLOUDY    32  28  86 SE8       29.90S FOG     WCI  25
GRAND MARAIS     N/A     34  28  79 S14       29.97F WCI  25
G MARAIS ARPRT CLOUDY    27  23  86 S9        29.91F FOG     WCI  17
$$
MNZ029>031-032-039>041-046>048-054>057-064-211600-
   West Central Minnesota

CITY           SKY/WX    TMP DP  RH WIND       PRES   REMARKS
FERGUS FALLS   CLOUDY    30  28  93 S14       29.79F FOG     WCI  20
WHEATON        CLOUDY    28  27  93 SE12      29.76F FOG     WCI  18
MORRIS         CLOUDY    30  30 100 SE10      29.76F FOG     WCI  21
ALEXANDRIA     FOG       30  29  96 S16       29.78F VSB 1/2 WCI  19
ELBOW LAKE     CLOUDY    30  29  99 S16       29.75F FOG     WCI  18
WADENA         CLOUDY    28  28 100 S13       29.77F FOG     WCI  18
GLENWOOD       FOG       30  30 100 S12       29.79F VSB 1/4 WCI  21
APPLETON       CLOUDY    34  30  86 SE8       29.77F FOG     WCI  27
BENSON         CLOUDY    32  30  93 S7        29.79F FOG     WCI  26
ORTONVILLE     CLOUDY    30  28  93 SE8       29.75F FOG     WCI  23
MADISON          N/A     36  34  93 SE8       29.76F FOG
WILLMAR        FOG       34  30  86 SE9       29.81F VSB<1/4 WCI  26
$$
MNZ033>034-036-042>043-049>051-058-059-211600-
   Central Minnesota

CITY           SKY/WX    TMP DP  RH WIND       PRES   REMARKS
ST CLOUD       FOG       34  31  88 SE10      29.84F VSB 1/2 WCI  26
SAUK CENTRE    CLOUDY    30  30  99 S10       29.81F FOG     WCI  21
PAYNESVILLE    FOG       29  29 100 E5        29.82F VSB 1/4 WCI  24
AITKIN         CLOUDY    34  28  80 S9        29.81F HAZE    WCI  26
PINE RIVER     CLOUDY    30  30 100 S12       29.83F FOG     WCI  21
BRAINERD       CLOUDY    30  29  96 S13       29.81F FOG     WCI  20
STAPLES        CLOUDY    28  28 100 S9        29.79S FOG     WCI  20
LONG PRAIRIE   CLOUDY    30  30 100 SE14      29.80F FOG     WCI  20
LITTLE FALLS   CLOUDY    32  30  93 S6        29.83F FOG     WCI  26
LITCHFIELD     FOG       34  34 100 SE6       29.83F VSB 1/4 WCI  29
BUFFALO        FOG       33  32  98 SE3       29.87S VSB 1/2
MAPLE LAKE     FOG       33  33  99 SE6       29.85F VSB 1/2 WCI  28
$$
MNZ037-044-045-052-053-211600-
   East Central Minnesota

CITY           SKY/WX    TMP DP  RH WIND       PRES   REMARKS
PRINCETON      FOG       34  32  93 SE6       29.86F VSB 1   WCI  29
MORA           CLOUDY    32  30  93 SE6       29.88F WCI  26
CAMBRIDGE      HAZE      34  27  75 SE3       29.86F VSB 3/4
RUSH CITY      CLOUDY    32  31  96 SE9       29.89F FOG     WCI  24
MOOSE LAKE     CLOUDY    32  30  93 S6        29.86S FOG     WCI  26
HINCKLEY       CLOUDY    32  32 100 SE7       29.88F FOG     WCI  26
CLOQUET        CLOUDY    30  28  93 S6        29.87S FOG     WCI  24
MCGREGOR       CLOUDY    32  30  93 S13       29.85S WCI  22
$$
MNZ071>073-080-081-089-090-097-098-211600-
   Southwest Minnesota

CITY           SKY/WX    TMP DP  RH WIND       PRES   REMARKS
MONTEVIDEO     CLOUDY    32  32 100 S7        29.79F FOG     WCI  26
GRANITE FALLS  FOG       32  32  99 SE8       29.80F VSB 1/2 WCI  25
CANBY          CLOUDY    32  32  98 SE5       29.76F FOG     WCI  28
MARSHALL       CLOUDY    34  28  80 S12       29.77F WCI  25
REDWOOD FALLS  FOG       33  33 100 SE10      29.81F VSB 1/4 WCI  25
OLIVIA         FOG       34  32  93 SE10      29.80F VSB 1/4 WCI  26
PIPESTONE      SNOW      32  30  93 S3        29.73F VSB<1/4
WINDOM         CLOUDY    34  34 100 S10G16    29.80S FOG     WCI  26
WORTHINGTON    CLOUDY    34 -15  12 S12       29.79S VSB 1/2 WCI  25
JACKSON        CLOUDY    34  32  93 S14       29.81F FOG     WCI  24
TRACY          CLOUDY    33  33  98 S8        29.77F FOG     WCI  27
SLAYTON        FOG       32  32 100 S5        29.78F VSB 3/4 WCI  27
$$
MNZ065>067-074>077-082>085-091>093-211600-
   South Central Minnesota

CITY           SKY/WX    TMP DP  RH WIND       PRES   REMARKS
MANKATO        CLOUDY    36  30  80 S14       29.85F VSB 1/2
NEW ULM        FOG       34  34 100 S12       29.82F VSB 1/4 WCI  25
ST JAMES       FOG       36  36 100 SE10      29.83F VSB 1
FAIRMONT       CLOUDY    36  32  87 S17       29.82F
GLENCOE        FOG       35  35 100 S7        29.83F VSB 1   WCI  29
FARIBAULT      LGT RAIN  36  34  93 SE13      29.88F
OWATONNA       DRIZZLE   34  34 100 S12G18    29.88F WCI  25
WASECA         CLOUDY    34  32  93 S15       29.88F FOG     WCI  24
ALBERT LEA     FOG       36  36 100 S12G20    29.88S VSB 1/4
$$
MNZ078>079-086>088-094>096-211600-
   Southeast Minnesota

CITY           SKY/WX    TMP DP  RH WIND       PRES   REMARKS
ROCHESTER      FOG       33  33 100 S16       29.91F VSB 1/4 WCI  23
RED WING       CLOUDY    34  34 100 SE8       29.92F FOG     WCI  27
STANTON        CLOUDY    35  33  91 S9        29.89S FOG     WCI  28
DODGE CENTER   FOG       34  34 100 S16       29.89S VSB 1/4 WCI  23
WINONA         CLOUDY    36  34  93 SE7       29.97F FOG
AUSTIN         FOG       34  34 100 S12G18    29.90S VSB 3/4 WCI  25
PRESTON        FOG       33  32  99 S15G22    29.93F VSB 1/4 WCI  22
$$
ABBREVIATIONS USED IN REMARKS
   TC - TEMPERATURES IN CELSIUS
  WCI - WIND CHILL INDEX
   HX - HEAT INDEX
  VSB - VISIBILITY
$$



USA.gov is the U.S. government's official web portal to all federal, state and local government web resources and services.